Location: Unspecified
(0.0000°N, 0.0000°E)
Time: 12:03:39
(UTC+00:00)

SR - Pass Details

Date: 19 December 2018
Orbit: 581 x 875 km, 66.7° (Epoch: 16 July)

Event Time Altitude Azimuth Distance (km) Brightness Sun altitude
Rises 23:52:25 0° 215° (SW) 3,444 - -66.5°
Reaches altitude 10° 23:55:02 10° 222° (SW) 2,518 - -66.6°
Maximum altitude 00:00:28 39° 289° (WNW) 1,284 - -66.6°
Drops below altitude 10° 00:05:50 10° 357° (N) 2,485 - -66.5°
Sets 00:08:26 0° 5° (N) 3,393 - -66.4°
